Change the Weather History Date:

Tuesday, February 19, 2013

  Actual Average Record
Temperature  
Mean Temperature 42 °F -  
Max Temperature 48 °F 61 °F 76 °F (1964)
Min Temperature 35 °F 44 °F 33 °F (1961)
Degree Days  
Heating Degree Days 23    
Moisture  
Dew Point 38 °F    
Average Humidity 84    
Maximum Humidity 96    
Minimum Humidity 68    
Precipitation  
Precipitation 0.36 in - - ()
Sea Level Pressure  
Sea Level Pressure 29.81 in    
Wind  
Wind Speed 10 mph (SSE)    
Max Wind Speed 22 mph    
Max Gust Speed 30 mph    
Visibility 9 miles    
Events Rain    
Averages and records for this station are not official NWS values.
T = Trace of Precipitation, MM = Missing Value Source: NWS Daily Summary

Daily Weather History Graph

Daily Weather History Graph

Search for Another Location

Airport or City:

Trip Planner

Search our weather history database for the weather conditions in past years. The results will help you decide how hot, cold, wet, or windy it might be!

Date:

Astronomy

Feb. 19, 2013 Rise Set
Actual Time 6:51 AM PST 5:48 PM PST
Civil Twilight 6:24 AM PST 6:16 PM PST
Nautical Twilight 5:53 AM PST 6:47 PM PST
Astronomical Twilight 5:23 AM PST 7:17 PM PST
Moon 12:26 PM PST (2/19) 2:26 AM PST (2/19)
Length of Visible Light 11h 51m
Length of Day
10h 57m
Waxing Gibbous, 68% of the Moon is Illuminated
Feb 19
Waxing Gibbous
Feb 25
Full
Mar 4
Last Quarter
Mar 11
New
Mar 19
First Quarter

Hourly Weather History & Observations

Time (PST) Temp. Windchill Dew Point Humidity Pressure Visibility Wind Dir Wind Speed Gust Speed Precip Events Conditions
12:53 AM 44.1 °F 39.0 °F 39.0 °F 82% 29.91 in 10.0 mi SSE 9.2 mph - N/A   Clear
1:53 AM 42.1 °F 37.1 °F 37.0 °F 82% 29.91 in 10.0 mi South 8.1 mph - N/A   Clear
2:53 AM 41.0 °F 36.4 °F 37.0 °F 86% 29.89 in 10.0 mi SSE 6.9 mph - N/A   Clear
3:53 AM 39.9 °F 34.5 °F 35.1 °F 83% 29.89 in 10.0 mi South 8.1 mph - N/A   Clear
4:53 AM 39.9 °F 34.5 °F 36.0 °F 86% 29.88 in 10.0 mi SSE 8.1 mph - N/A   Clear
5:53 AM 41.0 °F 35.8 °F 36.0 °F 82% 29.88 in 10.0 mi SSE 8.1 mph - N/A   Partly Cloudy
6:53 AM 44.1 °F 37.4 °F 39.0 °F 82% 29.86 in 10.0 mi South 13.8 mph - N/A   Mostly Cloudy
7:53 AM 45.0 °F 38.9 °F 39.9 °F 82% 29.85 in 10.0 mi SSE 12.7 mph - N/A   Mostly Cloudy
8:53 AM 46.0 °F 39.9 °F 39.9 °F 79% 29.83 in 8.0 mi SSE 13.8 mph - 0.00 in Rain Light Rain
9:15 AM 44.6 °F 38.8 °F 42.8 °F 93% 29.82 in 3.0 mi SSE 11.5 mph - 0.00 in Rain Light Rain
10:53 AM 46.0 °F 39.0 °F 42.1 °F 86% 29.81 in 2.5 mi South 17.3 mph 25.3 mph 0.14 in Rain Rain
10:58 AM 46.4 °F 40.1 °F 42.8 °F 87% 29.80 in 3.0 mi South 15.0 mph - 0.02 in Rain Rain
11:36 AM 46.4 °F 39.8 °F 44.6 °F 93% 29.78 in 10.0 mi South 16.1 mph - 0.03 in   Overcast
11:53 AM 46.0 °F 38.8 °F 43.0 °F 89% 29.77 in 10.0 mi South 18.4 mph 24.2 mph 0.03 in   Overcast
12:53 PM 48.0 °F - 43.0 °F 83% 29.77 in 10.0 mi South 12.7 mph - N/A   Overcast
1:32 PM 46.4 °F 45.2 °F 39.2 °F 76% 29.75 in 2.5 mi Variable 3.5 mph 18.4 mph 0.04 in Rain Rain
1:37 PM 44.6 °F 43.1 °F 37.4 °F 76% 29.74 in 10.0 mi NNE 3.5 mph 18.4 mph 0.05 in Rain Light Rain
1:53 PM 46.0 °F - 39.9 °F 79% 29.74 in 10.0 mi Calm Calm - 0.05 in   Mostly Cloudy
2:53 PM 48.0 °F - 37.9 °F 68% 29.74 in 10.0 mi South 6.9 mph - N/A   Mostly Cloudy
4:53 PM 46.9 °F - 39.9 °F 77% 29.73 in 10.0 mi SSE 10.4 mph - N/A   Mostly Cloudy
5:53 PM 46.0 °F 43.1 °F 39.9 °F 79% 29.73 in 10.0 mi SE 5.8 mph - N/A   Mostly Cloudy
6:53 PM 43.0 °F 34.0 °F 37.0 °F 80% 29.77 in 10.0 mi North 21.9 mph 29.9 mph 0.01 in   Mostly Cloudy
7:07 PM 41.0 °F 32.2 °F 35.6 °F 81% 29.78 in 10.0 mi North 18.4 mph 26.5 mph N/A   Mostly Cloudy
7:40 PM 39.2 °F 31.6 °F 35.6 °F 87% 29.80 in 5.0 mi North 12.7 mph - 0.08 in Rain Rain
7:53 PM 39.9 °F - 37.0 °F 89% 29.79 in 6.0 mi Calm Calm - 0.09 in Rain Rain
8:22 PM 41.0 °F 39.0 °F 35.6 °F 81% 29.79 in 10.0 mi NNW 3.5 mph - 0.04 in Rain Light Rain
8:53 PM 39.9 °F 35.1 °F 37.0 °F 89% 29.78 in 10.0 mi NNW 6.9 mph - 0.04 in   Mostly Cloudy
9:53 PM 37.9 °F 31.5 °F 36.0 °F 93% 29.80 in 10.0 mi WNW 9.2 mph - N/A   Scattered Clouds
10:53 PM 36.0 °F 30.3 °F 34.0 °F 93% 29.81 in 10.0 mi NW 6.9 mph - N/A   Clear
11:53 PM 35.1 °F 31.0 °F 34.0 °F 96% 29.83 in 10.0 mi North 4.6 mph - N/A   Clear